N4EWE-13 Weather Reports


time (UTC)temp
C
wind
direction
speed
KPH
gust
KPH
rain 1hr
cm
rain 24hr
cm
rain mn
cm
humidity
%
barometer
mb
20260508010050 12 155 0.0 0.0 0.00 2.24 2.21 96 1011.6
20260508005045 12 155 0.0 1.6 0.00 2.24 2.21 96 1011.5
20260508004114 12 155 0.0 0.0 0.00 2.24 2.21 96 1011.5
20260508003048 12 155 0.0 0.0 0.00 2.24 2.21 96 1011.4
20260508002043 12 155 0.0 3.2 0.00 2.24 2.21 96 1011.2
20260508001105 12 153 0.0 0.0 0.00 2.24 2.21 96 1011.1
20260508000049 12 153 0.0 0.0 0.00 2.24 2.21 96 1011.3
20260507235027 12 153 0.0 0.0 0.00 2.24 2.21 96 1011.3
20260507234052 12 153 0.0 3.2 0.00 2.24 2.21 96 1011.0
20260507233024 12 103 0.0 0.0 0.00 2.24 2.21 96 1010.8
20260507232032 12 103 0.0 1.6 0.00 2.24 2.21 96 1010.5
20260507231049 12 103 0.0 1.6 0.00 2.24 2.21 96 1010.5
20260507225050 12 109 0.0 4.8 0.00 2.24 2.21 96 1010.1
20260507224028 12 84 0.0 0.0 0.00 2.24 2.21 96 1010.3
20260507223033 12 84 0.0 0.0 0.00 2.24 2.21 96 1010.6
20260507222042 12 84 0.0 3.2 0.00 2.24 2.21 96 1010.5
20260507221126 12 84 0.0 3.2 0.00 2.24 2.21 96 1010.7
20260507220049 12 82 0.0 1.6 0.00 2.24 2.21 96 1010.6
20260507215029 12 96 1.6 3.2 0.00 2.24 2.21 96 1010.5
20260507214036 12 97 1.6 3.2 0.00 2.24 2.21 96 1010.4
20260507213038 12 122 1.6 3.2 0.00 2.24 2.21 96 1010.3
20260507212043 12 94 0.0 3.2 0.00 2.24 2.21 96 1010.2
20260507211103 12 94 1.6 3.2 0.00 2.24 2.21 96 1010.2
20260507210035 12 121 1.6 3.2 0.00 2.24 2.21 96 1010.3
20260507205034 13 84 1.6 3.2 0.00 2.24 2.21 96 1010.1
20260507204033 13 115 1.6 3.2 0.00 2.24 2.21 96 1009.8
20260507203025 13 130 0.0 3.2 0.00 2.24 2.21 96 1009.9
20260507202053 12 87 1.6 3.2 0.00 2.24 2.21 96 1009.8
20260507201112 12 61 0.0 3.2 0.00 2.24 2.21 96 1010.0
20260507200045 12 77 1.6 4.8 0.00 2.29 2.21 96 1010.2
20260507195043 12 109 1.6 3.2 0.00 2.29 2.21 96 1010.2
20260507194042 12 88 1.6 4.8 0.00 2.29 2.21 96 1010.0
20260507193036 12 80 1.6 4.8 0.00 2.29 2.21 96 1010.3
20260507192041 13 84 1.6 4.8 0.00 2.29 2.21 95 1010.1
20260507191101 13 5 1.6 9.7 0.00 2.29 2.21 96 1010.2
20260507190031 13 129 1.6 4.8 0.03 2.29 2.21 96 1009.7
20260507185032 13 69 1.6 3.2 0.03 2.29 2.21 96 1009.5
20260507184031 13 78 1.6 4.8 0.03 2.29 2.21 96 1009.7
20260507183112 13 40 1.6 3.2 0.03 2.29 2.21 96 1009.5
20260507182048 13 70 1.6 4.8 0.03 2.29 2.21 96 1009.4
20260507181109 13 102 1.6 3.2 0.03 2.29 2.21 95 1009.7
20260507180042 13 91 1.6 6.4 0.03 2.26 2.18 95 1009.5
20260507175039 14 86 3.2 4.8 0.05 2.26 2.18 95 1009.7
20260507174042 14 113 1.6 3.2 0.08 2.26 2.18 95 1010.3
20260507173035 14 113 1.6 4.8 0.08 2.26 2.18 95 1009.8
20260507172034 15 70 1.6 3.2 0.10 2.26 2.18 95 1009.3
20260507171112 15 87 1.6 4.8 0.10 2.26 2.18 95 1009.1
20260507165037 15 115 3.2 6.4 0.10 2.21 2.13 94 1009.3
20260507164037 16 111 3.2 6.4 0.10 2.18 2.11 94 1009.4
20260507163057 17 107 1.6 6.4 0.15 2.18 2.11 95 1009.9
20260507162033 18 57 3.2 14.5 0.15 2.16 2.08 96 1010.1
20260507161113 19 159 1.6 4.8 0.18 2.16 2.08 97 1009.8
20260507160046 19 130 0.0 4.8 0.15 2.13 2.06 97 1009.7
20260507155046 19 153 0.0 1.6 0.18 2.11 2.03 97 1009.5
20260507154045 19 153 0.0 0.0 0.23 2.08 2.01 97 1009.1
20260507153039 19 153 0.0 0.0 0.23 2.03 1.96 97 1009.5
20260507152036 19 153 0.0 0.0 0.25 2.01 1.93 97 1009.5
20260507151116 19 153 0.0 0.0 0.25 1.98 1.91 97 1009.5
20260507150027 19 153 0.0 0.0 0.23 1.96 1.88 97 1009.5
20260507145025 19 153 0.0 0.0 0.23 1.91 1.83 97 1009.7
20260507144053 19 150 0.0 1.6 0.20 1.85 1.78 97 1009.3
20260507143046 19 146 1.6 3.2 0.18 1.80 1.73 97 1009.5
20260507142052 19 63 0.0 1.6 0.13 1.75 1.68 97 1009.7
20260507141110 19 94 0.0 1.6 0.13 1.73 1.65 97 1009.7
20260507140044 19 360 0.0 4.8 0.13 1.73 1.65 97 1009.9
20260507135041 18 230 1.6 1.6 0.08 1.68 1.60 97 1010.2
20260507134043 18 108 0.0 3.2 0.05 1.65 1.57 97 1010.1
20260507133036 18 296 0.0 3.2 0.03 1.63 1.55 97 1010.1
20260507132045 18 310 0.0 1.6 0.03 1.63 1.55 97 1010.0
20260507131105 18 276 0.0 4.8 0.00 1.60 1.52 97 1009.9
20260507130041 18 188 1.6 3.2 0.00 1.60 1.52 97 1009.9
20260507125036 18 238 0.0 3.2 0.03 1.60 1.52 97 1010.0
20260507124035 18 231 0.0 0.0 0.18 1.60 1.52 97 1009.9
20260507123032 18 231 0.0 1.6 0.30 1.60 1.52 97 1010.0
20260507122025 18 231 0.0 1.6 0.41 1.60 1.52 97 1010.0
20260507121113 18 231 0.0 3.2 0.56 1.60 1.52 97 1010.1
20260507120049 18 231 0.0 3.2 0.84 1.60 1.52 97 1010.2
20260507115045 18 231 0.0 1.6 0.84 1.55 1.47 97 1010.4
20260507114054 18 121 0.0 3.2 0.86 1.42 1.35 97 1010.6
20260507113038 18 212 0.0 1.6 0.84 1.30 1.22 96 1010.5
20260507112034 18 180 0.0 4.8 0.74 1.19 1.12 96 1010.4
20260507111122 18 242 1.6 3.2 0.56 0.99 0.91 96 1010.6
20260507110044 18 192 0.0 0.0 0.33 0.76 0.69 96 1010.3
20260507105039 18 192 0.0 1.6 0.28 0.71 0.64 96 1009.9
20260507104047 18 192 0.0 0.0 0.13 0.56 0.48 96 1010.0
20260507103024 18 192 0.0 0.0 0.03 0.46 0.38 96 1010.1
20260507102049 18 192 0.0 0.0 0.03 0.46 0.38 96 1010.1
20260507101109 18 192 0.0 0.0 0.00 0.43 0.36 96 1009.9
20260507100033 18 192 0.0 0.0 0.00 0.43 0.36 96 1010.1
20260507095036 18 192 0.0 1.6 0.00 0.43 0.36 96 1009.9
20260507094046 18 192 0.0 1.6 0.03 0.43 0.36 96 1010.1
20260507093052 18 191 0.0 1.6 0.08 0.43 0.36 96 1010.0
20260507092032 18 191 0.0 3.2 0.08 0.43 0.36 96 1010.0
20260507091047 18 266 0.0 3.2 0.08 0.43 0.36 96 1010.1
20260507090048 18 245 0.0 3.2 0.08 0.43 0.36 96 1010.2
20260507085024 18 161 0.0 3.2 0.08 0.43 0.36 95 1010.1
20260507084028 18 234 0.0 3.2 0.05 0.41 0.33 95 1010.3
20260507083035 18 229 1.6 4.8 0.00 0.36 0.28 95 1010.6
20260507082043 18 211 0.0 1.6 0.00 0.36 0.28 95 1010.5
20260507081058 18 207 0.0 0.0 0.00 0.36 0.28 95 1010.5
20260507080042 18 207 0.0 1.6 0.00 0.36 0.28 95 1010.5
20260507075050 18 207 0.0 0.0 0.00 0.36 0.28 95 1010.7
20260507074049 18 207 0.0 0.0 0.00 0.36 0.28 95 1010.8
20260507073042 18 207 0.0 1.6 0.00 0.36 0.28 95 1011.0
20260507072041 18 207 0.0 0.0 0.00 0.36 0.28 95 1011.0
20260507071102 18 207 0.0 1.6 0.00 0.36 0.28 95 1011.2
20260507070101 18 208 0.0 3.2 0.00 0.36 0.28 95 1011.1
20260507065037 18 219 0.0 0.0 0.00 0.36 0.28 94 1011.5
20260507064037 18 228 0.0 0.0 0.00 0.36 0.28 94 1011.7
20260507063032 18 228 0.0 1.6 0.03 0.36 0.28 94 1011.7
20260507062034 18 228 0.0 3.2 0.10 0.36 0.28 94 1011.6
20260507061113 18 213 0.0 3.2 0.10 0.36 0.28 94 1011.8
20260507060044 18 236 0.0 1.6 0.13 0.36 0.28 94 1011.7
20260507055043 18 171 1.6 3.2 0.18 0.36 0.28 94 1011.7
20260507054043 18 121 0.0 1.6 0.23 0.36 0.28 94 1011.8
20260507053037 18 180 0.0 0.0 0.23 0.33 0.25 93 1011.9
20260507052035 19 180 0.0 3.2 0.15 0.25 0.18 93 1011.9
20260507051056 19 206 1.6 3.2 0.15 0.25 0.18 93 1012.2
20260507050027 19 360 0.0 6.4 0.15 0.23 0.15 93 1011.9
20260507045026 19 250 1.6 11.3 0.10 0.18 0.10 93 1011.5
20260507044027 19 205 3.2 9.7 0.05 0.13 0.05 92 1012.3
20260507043024 19 136 1.6 3.2 0.05 0.10 0.03 92 1013.3
20260507042049 19 225 1.6 6.4 0.05 0.10 0.03 92 1013.4
20260507041058 19 88 0.0 1.6 0.05 0.10 0.03 92 1013.3
20260507040048 19 302 0.0 1.6 0.03 0.08 0.08 91 1012.9
20260507035047 19 302 0.0 0.0 0.03 0.08 0.08 91 1012.3
20260507033028 19 302 0.0 1.6 0.00 0.05 0.05 90 1012.4
20260507032057 19 286 0.0 0.0 0.00 0.05 0.05 90 1012.4
20260507031055 19 286 0.0 0.0 0.00 0.05 0.05 89 1012.2
20260507030028 19 286 0.0 0.0 0.00 0.05 0.05 89 1012.1
20260507025028 19 286 0.0 0.0 0.00 0.05 0.05 88 1012.0
20260507024039 19 286 0.0 0.0 0.00 0.05 0.05 88 1011.9
20260507023030 20 286 0.0 0.0 0.00 0.05 0.05 87 1011.9
20260507022037 20 286 0.0 0.0 0.00 0.05 0.05 87 1011.7
20260507021057 20 286 0.0 0.0 0.00 0.05 0.05 87 1011.7
20260507020028 20 286 0.0 0.0 0.00 0.05 0.05 86 1011.8
20260507015034 20 286 0.0 1.6 0.00 0.05 0.05 86 1011.9
20260507014046 20 286 0.0 0.0 0.00 0.05 0.05 85 1011.5
20260507013053 20 286 0.0 0.0 0.00 0.05 0.05 85 1011.6
20260507012025 20 286 0.0 0.0 0.00 0.05 0.05 84 1011.8
20260507011112 20 286 0.0 0.0 0.00 0.05 0.05 83 1011.7